{"data":{"norad_id":64266,"epoch":"2026-09-20T13:36:34.802208Z","epoch_age_seconds":131814,"freshness":"FRESH","line1":"1 64266U 25120L   26263.56706947  .00011996  00000+0  36555-3 0  9999","line2":"2 64266  53.1586 289.3186 0001452  87.0384 273.0785 15.34405219 73728","mean_motion":15.34405219,"eccentricity":0.0001452,"inclination_deg":53.1586,"raan_deg":289.3186,"arg_perigee_deg":87.0384,"mean_anomaly_deg":273.0785,"bstar":0.00036555,"rev_number":7372,"period_min":93.847438875271,"perigee_km":461.69444053267,"apogee_km":463.68101603377,"semimajor_km":6840.8247282832,"source":"CELESTRAK","updated_at":"2026-09-21T09:00:35.283454Z"}}